This is the latest recevied weather packets stored in our database for station/object N9CQL. If no packets are shown the sender has not sent any weather packets the latest 10 day(s).
| Time | Temp. | Humidity | Pressure | Rain* | Wind** | Luminosity | Snow |
|---|---|---|---|---|---|---|---|
| 1777304540 | 13.89° C | 94% | 1008.2 hPa | 0 mm | - | 49 W/m² | - |
| 1777304236 | 13.33° C | 93% | 1008.2 hPa | 0 mm | - | 73 W/m² | - |
| 1777303934 | 13.33° C | 93% | 1008.2 hPa | 0 mm | - | 80 W/m² | - |
| 1777303630 | 13.33° C | 93% | 1008.5 hPa | 0 mm | - | 74 W/m² | - |
| 1777303328 | 13.33° C | 93% | 1008.2 hPa | 0 mm | - | 73 W/m² | - |
| 1777303025 | 13.33° C | 93% | 1008.2 hPa | 0 mm | - | 60 W/m² | - |
| 1777302723 | 13.33° C | 93% | 1008.2 hPa | 1.78 mm | - | 43 W/m² | - |
| 1777302421 | 13.33° C | 92% | 1008.6 hPa | 1.78 mm | - | 36 W/m² | - |
| 1777302118 | 13.89° C | 92% | 1008.6 hPa | 0 mm | - | 44 W/m² | - |
| 1777301815 | 13.89° C | 92% | 1008.3 hPa | 1.27 mm | - | 51 W/m² | - |
| 1777301513 | 13.89° C | 91% | 1008.7 hPa | 4.83 mm | - | 51 W/m² | - |
| 1777301210 | 13.89° C | 91% | 1008.9 hPa | 6.6 mm | - | 78 W/m² | - |
| 1777300906 | 13.89° C | 90% | 1009.1 hPa | 7.87 mm | - | 43 W/m² | - |
| 1777300604 | 13.89° C | 89% | 1009.3 hPa | 4.83 mm | - | 49 W/m² | - |
| 1777300301 | 13.89° C | 88% | 1008.8 hPa | 0 mm | - | 42 W/m² | - |
| 1777299998 | 13.89° C | 87% | 1009.4 hPa | 0 mm | - | 53 W/m² | - |
| 1777299689 | 13.89° C | 87% | 1009.6 hPa | 0 mm | - | 53 W/m² | - |
| 1777299387 | 13.89° C | 87% | 1009.7 hPa | 1.27 mm | - | 64 W/m² | - |
| 1777299085 | 13.89° C | 87% | 1009.7 hPa | 1.27 mm | - | 81 W/m² | - |
| 1777298781 | 13.89° C | 86% | 1009.7 hPa | 1.27 mm | - | 80 W/m² | - |
| 1777298478 | 14.44° C | 84% | 1009.8 hPa | 0 mm | - | 42 W/m² | - |
| 1777298174 | 14.44° C | 83% | 1009.9 hPa | 0 mm | - | 39 W/m² | - |
| 1777297869 | 13.89° C | 83% | 1009.8 hPa | 0 mm | - | 27 W/m² | - |
| 1777297568 | 13.89° C | 83% | 1009.8 hPa | 0 mm | - | 26 W/m² | - |
| 1777297264 | 13.89° C | 83% | 1009.7 hPa | 0 mm | - | 19 W/m² | - |
* Rain latest hour (hover to see other rain measurements)
** Current wind speed in m/s (hover to see current wind gust speed)